"2009-07-09 00:00:00",1045742,6.31,157.1,2.507,0.437,23.3,111.3435,28.35,29.35,20.49,0,111.4,13.06,29.20,119.1
"2009-07-09 00:00:30",1045743,6.972,158.4,2.238,0.205,23.36,111.3438,28.35,29.36,20.88,0,111.4,13.06,29.20,120.4
"2009-07-09 00:01:00",1045744,6.212,152,4.192,0.688,23.4,111.3426,28.35,29.35,20.86,0,111.4,13.07,29.20,114.0
"2009-07-09 00:01:30",1045745,6.252,143.3,4.955,0.348,23.48,111.3426,28.35,29.35,21.28,0,111.4,13.06,29.20,105.3
"2009-07-09 00:02:00",1045746,6.329,153.7,6.26,0.304,23.39,111.3438,28.35,29.35,20.48,0,111.4,13.07,29.20,115.7
"2009-07-09 00:02:30",1045747,6.612,152.8,7.16,0.36,23.33,111.3426,28.35,29.36,20.24,0,111.4,13.06,29.20,114.8
"2009-07-09 00:03:00",1045748,6.503,151,3.54,0.266,23.43,111.3426,28.35,29.35,20.68,0,111.4,13.06,29.20,113.0
"2009-07-09 00:03:30",1045749,6.195,145.1,3.659,0.369,23.45,111.3426,28.35,29.37,20.73,0,111.4,13.06,29.20,107.1
"2009-07-09 00:04:00",1045750,6.638,149.7,4.142,0.373,23.38,111.3429,28.35,29.37,20.51,0,111.4,13.06,29.20,111.7
"2009-07-09 00:04:30",1045751,6.673,148.4,1.942,0.206,23.35,111.3429,28.35,29.37,19.81,0,111.4,13.06,29.20,110.4
"2009-07-09 00:05:00",1045752,6.196,152.8,4.77,0.437,23.43,111.3432,28.35,29.35,20.02,0,111.4,13.06,29.20,114.8
"2009-07-09 00:05:30",1045753,6.018,150.2,1.695,0.57,23.39,111.3432,28.35,29.35,19.84,0,111.4,13.06,29.20,112.2
"2009-07-09 00:06:00",1045754,6.608,144.2,2.263,0.265,23.32,111.3426,28.35,29.35,19.75,0,111.4,13.06,29.20,106.2
"2009-07-09 00:06:30",1045755,6.314,153,7.84,0.264,23.39,111.3412,28.34,29.37,20.06,0,111.4,13.06,29.19,115.0
"2009-07-09 00:07:00",1045756,6.186,155.2,5.936,0.235,23.39,111.3393,28.34,29.38,20.5,0,111.4,13.06,29.19,117.2
"2009-07-09 00:07:30",1045757,6.682,151.1,2.421,0.285,23.34,111.3371,28.33,29.37,20.22,0,111.4,13.06,29.18,113.1
"2009-07-09 00:08:00",1045758,6.44,146.1,1.187,0.118,23.32,111.3356,28.33,29.37,20.03,0,111.4,13.06,29.18,108.1
"2009-07-09 00:08:30",1045759,5.877,150.4,4.469,0.258,23.33,111.3353,28.33,29.36,20.09,0,111.4,13.06,29.18,112.4
"2009-07-09 00:09:00",1045760,5.601,153.2,1.281,0.109,23.31,111.3357,28.33,29.35,20.04,0,111.4,13.06,29.18,115.2
"2009-07-09 00:09:30",1045761,5.522,152.4,2.827,0.329,23.28,111.3353,28.33,29.36,20.12,0,111.4,13.06,29.18,114.4
"2009-07-09 00:10:00",1045762,5.576,152.7,2.337,0.342,23.31,111.3353,28.33,29.35,20.24,0,111.4,13.06,29.18,114.7
"2009-07-09 00:10:30",1045763,6.118,155.9,3.319,0.327,23.38,111.3353,28.33,29.35,20.32,0,111.4,13.06,29.18,117.9
"2009-07-09 00:11:00",1045764,5.708,157.4,3.246,0.164,23.36,111.3357,28.33,29.35,20.35,0,111.4,13.06,29.18,119.4
"2009-07-09 00:11:30",1045765,6.545,153.8,1.849,0.475,23.42,111.3357,28.33,29.34,20.44,0,111.4,13.06,29.18,115.8
"2009-07-09 00:12:00",1045766,6.797,155.8,2.426,0.186,23.35,111.3353,28.33,29.34,20.1,0,111.4,13.06,29.18,117.8
"2009-07-09 00:12:30",1045767,6.553,154.7,1.975,0.199,23.41,111.336,28.33,29.35,20.09,0,111.4,13.06,29.18,116.7
"2009-07-09 00:13:00",1045768,6.692,156.1,2.912,0.296,23.44,111.3353,28.33,29.35,20.28,0,111.4,13.07,29.18,118.1
"2009-07-09 00:13:30",1045769,6.529,156.6,2.084,0.167,23.47,111.3353,28.33,29.35,20.48,0,111.4,13.07,29.18,118.6
"2009-07-09 00:14:00",1045770,6.279,152.5,1.894,0.12,23.37,111.3353,28.33,29.36,20.21,0,111.4,13.07,29.18,114.5
"2009-07-09 00:14:30",1045771,6.917,151.2,1.275,0.255,23.35,111.3369,28.33,29.35,20.14,0,111.4,13.07,29.18,113.2
"2009-07-09 00:15:00",1045772,6.948,150.4,1.201,0.149,23.37,111.3363,28.33,29.36,20.04,0,111.4,13.07,29.18,112.4
"2009-07-09 00:15:30",1045773,6.791,150.5,1.175,0.228,23.4,111.336,28.33,29.37,20.62,0,111.4,13.07,29.18,112.5
"2009-07-09 00:16:00",1045774,6.652,150.4,1.518,0.179,23.39,111.3363,28.33,29.35,20.35,0,111.4,13.07,29.18,112.4
"2009-07-09 00:16:30",1045775,6.826,149.7,1.021,0.522,23.36,111.3363,28.33,29.35,20.6,0,111.4,13.07,29.18,111.7
"2009-07-09 00:17:00",1045776,6.349,152.3,1.034,0.335,23.36,111.3372,28.33,29.36,20.94,0,111.4,13.07,29.18,114.3
"2009-07-09 00:17:30",1045777,6.571,151.2,3.293,0.217,23.33,111.3382,28.33,29.35,20.94,0,111.4,13.07,29.19,113.2
"2009-07-09 00:18:00",1045778,6.04,148.5,2.694,0.17,23.34,111.34,28.34,29.36,21.34,0,111.4,13.07,29.19,110.5
"2009-07-09 00:18:30",1045779,6.682,149.3,1.813,0.135,23.33,111.3391,28.34,29.37,21.69,0,111.4,13.07,29.19,111.3
"2009-07-09 00:19:00",1045780,6.82,148.2,1.188,0.394,23.32,111.3382,28.33,29.35,21.89,0,111.4,13.07,29.19,110.2
"2009-07-09 00:19:30",1045781,7.227,149.8,1.919,0.257,23.35,111.3377,28.33,29.36,22.8,0,111.4,13.07,29.18,111.8
"2009-07-09 00:20:00",1045782,7.117,147.5,1.494,0.171,23.38,111.3343,28.32,29.36,22.71,0,111.4,13.07,29.18,109.5
"2009-07-09 00:20:30",1045783,7.005,148.9,1.631,0.197,23.35,111.325,28.3,29.38,22.61,0,111.4,13.07,29.15,110.9
"2009-07-09 00:21:00",1045784,6.89,147.9,0.943,0.197,23.38,111.3191,28.29,29.35,22.61,0,111.4,13.07,29.14,109.9
"2009-07-09 00:21:30",1045785,7.197,147.3,1.139,0.309,23.39,111.3187,28.28,29.34,22.86,0,111.4,13.07,29.14,109.3
"2009-07-09 00:22:00",1045786,6.945,141.8,2.509,0.222,23.34,111.3131,28.27,29.33,22.94,0,111.4,13.07,29.12,103.8
"2009-07-09 00:22:30",1045787,6.733,142.7,1.065,0.178,23.33,111.3164,28.28,29.32,23.11,0,111.4,13.07,29.13,104.7
"2009-07-09 00:23:00",1045788,6.924,143,2.384,0.364,23.41,111.3176,28.28,29.33,23.14,0,111.4,13.07,29.13,105.0
"2009-07-09 00:23:30",1045789,7.722,147.1,3.841,0.444,23.44,111.317,28.28,29.34,23.17,0,111.4,13.07,29.13,109.1
"2009-07-09 00:24:00",1045790,7.822,145.4,3.009,0.511,23.46,111.3168,28.28,29.31,23.21,0,111.4,13.07,29.13,107.4
"2009-07-09 00:24:30",1045791,7.563,147.8,3.939,0.464,23.49,111.3013,28.24,29.3,22.57,0,111.4,13.07,29.09,109.8
"2009-07-09 00:25:00",1045792,7.258,147,3.828,0.445,23.47,111.2956,28.23,29.29,23.31,0,111.4,13.07,29.08,109.0
"2009-07-09 00:25:30",1045793,6.346,143.6,2.987,0.211,23.43,111.2956,28.23,29.28,23.24,0,111.4,13.07,29.08,105.6
"2009-07-09 00:26:00",1045794,6.806,148,2.124,0.598,23.44,111.29,28.21,29.28,23.37,0,111.4,13.07,29.06,110.0
"2009-07-09 00:26:30",1045795,6.836,146.5,4.012,0.311,23.47,111.2912,28.21,29.28,23.36,0,111.4,13.07,29.06,108.5
"2009-07-09 00:27:00",1045796,6.873,145.8,1.871,0.232,23.44,111.293,28.22,29.26,23.8,0,111.4,13.07,29.07,107.8
"2009-07-09 00:27:30",1045797,6.517,143.3,1.999,0.421,23.44,111.2933,28.22,29.24,23.69,0,111.4,13.07,29.07,105.3
"2009-07-09 00:28:00",1045798,7.419,144.9,2.163,0.234,23.47,111.2937,28.22,29.23,23.62,0,111.4,13.07,29.07,106.9
"2009-07-09 00:28:30",1045799,7.82,147,3.008,0.289,23.49,111.2926,28.22,29.24,22.4,0,111.4,13.07,29.07,109.0
"2009-07-09 00:29:00",1045800,7.306,148.1,3.439,0.298,23.42,111.2927,28.22,29.23,22.75,0,111.4,13.07,29.07,110.1
"2009-07-09 00:29:30",1045801,7.66,137.3,1.809,0.289,23.36,111.2928,28.22,29.21,23.48,0,111.4,13.07,29.07,99.3
"2009-07-09 00:30:00",1045802,7.361,139.4,2.688,0.256,23.38,111.2852,28.2,29.22,23.26,0,111.4,13.07,29.05,101.4
"2009-07-09 00:30:30",1045803,7.011,136.4,1.509,0.26,23.37,111.279,28.18,29.2,23.24,0,111.4,13.07,29.03,98.4
"2009-07-09 00:31:00",1045804,7.215,137.4,2.797,0.369,23.4,111.2734,28.17,29.2,23.22,0,111.4,13.07,29.02,99.4
"2009-07-09 00:31:30",1045805,7.334,139.3,2.698,0.246,23.39,111.2656,28.15,29.18,23.27,0,111.4,13.07,29.00,101.3
"2009-07-09 00:32:00",1045806,7.279,143.8,1.715,0.11,23.4,111.2625,28.14,29.18,23.42,0,111.4,13.07,28.99,105.8
"2009-07-09 00:32:30",1045807,7.357,146,2.081,0.19,23.49,111.2625,28.14,29.18,22.44,0,111.4,13.07,28.99,108.0
"2009-07-09 00:33:00",1045808,7.054,145.2,1.995,0.157,23.42,111.2625,28.14,29.15,21.96,0,111.4,13.07,28.99,107.2
"2009-07-09 00:33:30",1045809,7.084,144.3,2.121,0.197,23.41,111.2625,28.14,29.15,22.49,0,111.4,13.07,28.99,106.3
"2009-07-09 00:34:00",1045810,7.035,145,4.657,0.277,23.35,111.2614,28.14,29.15,22.36,0,111.4,13.07,28.99,107.0
"2009-07-09 00:34:30",1045811,6.945,141.6,2.555,0.356,23.34,111.255,28.12,29.13,22.99,0,111.4,13.07,28.97,103.6
"2009-07-09 00:35:00",1045812,6.788,137.7,2.654,0.27,23.28,111.2449,28.09,29.14,23.63,0,111.4,13.07,28.94,99.7
"2009-07-09 00:35:30",1045813,6.689,137.8,2.734,0.219,23.32,111.2379,28.08,29.12,23.53,0,111.4,13.07,28.93,99.8
"2009-07-09 00:36:00",1045814,7.142,144.9,1.997,0.189,23.44,111.2376,28.08,29.12,22.14,0,111.4,13.07,28.93,106.9
"2009-07-09 00:36:30",1045815,7.665,144.6,2.9,0.345,23.49,111.2323,28.06,29.12,21.87,0,111.4,13.07,28.91,106.6
"2009-07-09 00:37:00",1045816,7.843,143.5,2.39,0.242,23.47,111.2307,28.06,29.1,22.3,0,111.4,13.07,28.91,105.5
"2009-07-09 00:37:30",1045817,7.604,141.3,1.591,0.182,23.35,111.2304,28.06,29.1,23,0,111.4,13.07,28.91,103.3
"2009-07-09 00:38:00",1045818,7.16,142,2.998,0.228,23.4,111.2301,28.06,29.1,23.17,0,111.4,13.06,28.91,104.0
"2009-07-09 00:38:30",1045819,7.611,142.1,3.444,0.7,23.45,111.2323,28.06,29.09,22.84,0,111.4,13.06,28.91,104.1
"2009-07-09 00:39:00",1045820,8.08,142,4.041,0.335,23.45,111.2339,28.07,29.09,22.75,0,111.4,13.06,28.92,104.0
"2009-07-09 00:39:30",1045821,8.08,145.7,3.143,0.308,23.51,111.2292,28.05,29.08,23.03,0,111.4,13.06,28.90,107.7
"2009-07-09 00:40:00",1045822,8.25,146.8,1.667,0.135,23.57,111.2244,28.04,29.06,22.2,0,111.4,13.06,28.89,108.8
"2009-07-09 00:40:30",1045823,8.1,148.8,1.371,0.245,23.57,111.2144,28.02,29.05,22.1,0,111.4,13.06,28.87,110.8
"2009-07-09 00:41:00",1045824,7.833,146.4,1.17,0.303,23.58,111.2115,28.01,29.03,22.09,0,111.4,13.06,28.86,108.4
"2009-07-09 00:41:30",1045825,8.49,146.8,1.756,0.209,23.63,111.2096,28,29.04,22.12,0,111.4,13.06,28.85,108.8
"2009-07-09 00:42:00",1045826,8.36,149.6,0.65,0.108,23.59,111.2043,27.99,29.02,21.45,0,111.4,13.06,28.84,111.6
"2009-07-09 00:42:30",1045827,8.59,149.3,0.71,0.134,23.63,111.2046,27.99,29.03,20.8,0,111.4,13.06,28.84,111.3
"2009-07-09 00:43:00",1045828,8.77,150.7,1.224,0.101,23.71,111.204,27.99,29.01,20.74,0,111.4,13.06,28.84,112.7
"2009-07-09 00:43:30",1045829,8.52,153.1,1.557,0.119,23.74,111.2004,27.98,29,20.74,0,111.4,13.07,28.83,115.1
"2009-07-09 00:44:00",1045830,7.925,153.9,1.418,0.35,23.66,111.188,27.95,28.97,20.5,0,111.4,13.07,28.80,115.9
"2009-07-09 00:44:30",1045831,7.655,152.7,2.101,0.219,23.65,111.1796,27.93,28.97,20.34,0,111.4,13.07,28.78,114.7
"2009-07-09 00:45:00",1045832,8.53,146.7,1.342,0.279,23.6,111.1785,27.92,28.96,20.15,0,111.4,13.07,28.77,108.7
"2009-07-09 00:45:30",1045833,8.32,147.5,0.945,0.202,23.61,111.1734,27.91,28.96,20.12,0,111.4,13.07,28.76,109.5
"2009-07-09 00:46:00",1045834,8.52,148.5,0.979,0.071,23.61,111.1709,27.9,28.96,20.05,0,111.4,13.07,28.75,110.5
"2009-07-09 00:46:30",1045835,8.27,145.8,1.62,0.228,23.7,111.1709,27.9,28.95,20.26,0,111.4,13.07,28.75,107.8
"2009-07-09 00:47:00",1045836,7.928,144.3,1.1,0.163,23.66,111.1709,27.9,28.94,20.43,0,111.4,13.07,28.75,106.3
"2009-07-09 00:47:30",1045837,8.2,142.4,1.364,0.145,23.64,111.1709,27.9,28.94,21.22,0,111.4,13.07,28.75,104.4
"2009-07-09 00:48:00",1045838,8.38,144.1,2.126,0.137,23.71,111.1709,27.9,28.93,21.2,0,111.3,13.07,28.75,106.1
"2009-07-09 00:48:30",1045839,8.35,147.2,0.85,0.114,23.77,111.1709,27.9,28.95,20.4,0,111.4,13.07,28.75,109.2
"2009-07-09 00:49:00",1045840,8.33,147.1,1.386,0.123,23.71,111.1707,27.9,28.91,20.1,0,111.4,13.07,28.75,109.1
"2009-07-09 00:49:30",1045841,8.28,145.6,0.914,0.196,23.67,111.1654,27.89,28.92,19.77,0,111.3,13.07,28.74,107.6
"2009-07-09 00:50:00",1045842,7.92,145.3,1.21,0.397,23.59,111.1575,27.87,28.91,19.78,0,111.3,13.07,28.72,107.3
"2009-07-09 00:50:30",1045843,8.07,146.1,0.989,0.139,23.64,111.1534,27.86,28.91,19.49,0,111.3,13.07,28.71,108.1
"2009-07-09 00:51:00",1045844,8.17,148.2,1.065,0.142,23.65,111.1529,27.86,28.9,19.19,0,111.3,13.07,28.71,110.2
"2009-07-09 00:51:30",1045845,8.43,147.6,2.756,0.303,23.64,111.1536,27.86,28.9,19.34,0,111.3,13.07,28.71,109.6
"2009-07-09 00:52:00",1045846,8.39,143.2,1.092,0.119,23.62,111.1523,27.86,28.9,19.39,0,111.3,13.07,28.71,105.2
"2009-07-09 00:52:30",1045847,8.32,145,1.569,0.134,23.68,111.1516,27.85,28.9,19.5,0,111.3,13.07,28.70,107.0
"2009-07-09 00:53:00",1045848,8.22,145.2,1.374,0.216,23.68,111.1542,27.86,28.89,19.5,0,111.3,13.07,28.71,107.2
"2009-07-09 00:53:30",1045849,7.764,145.2,0.787,0.123,23.68,111.1527,27.86,28.9,19.29,0,111.3,13.07,28.71,107.2
"2009-07-09 00:54:00",1045850,7.847,149.2,3.253,0.12,23.63,111.1564,27.87,28.9,18.96,0,111.3,13.07,28.72,111.2
"2009-07-09 00:54:30",1045851,7.805,150,0.847,0.174,23.62,111.1608,27.88,28.9,18.97,0,111.3,13.07,28.73,112.0
"2009-07-09 00:55:00",1045852,7.452,148,1.658,0.126,23.62,111.1649,27.89,28.89,19.11,0,111.3,13.07,28.74,110.0
"2009-07-09 00:55:30",1045853,7.735,145,1.206,0.175,23.63,111.1717,27.91,28.91,19.08,0,111.3,13.07,28.76,107.0
"2009-07-09 00:56:00",1045854,8.03,146.5,2.85,0.24,23.73,111.1771,27.92,28.9,18.99,0,111.3,13.07,28.77,108.5
"2009-07-09 00:56:30",1045855,7.774,149.7,1.752,0.263,23.72,111.1807,27.93,28.89,18.96,0,111.3,13.07,28.78,111.7
"2009-07-09 00:57:00",1045856,7.77,143.8,1.548,0.237,23.72,111.1899,27.95,28.89,18.97,0,111.3,13.07,28.80,105.8
"2009-07-09 00:57:30",1045857,8.05,143.6,0.833,0.152,23.71,111.1928,27.96,28.91,19.02,0,111.3,13.07,28.81,105.6
"2009-07-09 00:58:00",1045858,8.31,147.7,2.225,0.25,23.78,111.1952,27.97,28.91,19.02,0,111.3,13.07,28.82,109.7
"2009-07-09 00:58:30",1045859,8.11,152.5,1.048,0.248,23.78,111.1978,27.97,28.92,19.04,0,111.3,13.07,28.82,114.5
"2009-07-09 00:59:00",1045860,8.11,146.4,2.766,0.28,23.67,111.1987,27.98,28.91,18.85,0,111.3,13.07,28.83,108.4
"2009-07-09 00:59:30",1045861,7.676,147.5,2.968,0.451,23.64,111.1962,27.97,28.91,18.72,0,111.3,13.07,28.82,109.5
"2009-07-09 01:00:00",1045862,6.826,150,1.323,0.164,23.64,111.1962,27.97,28.92,18.87,0,111.3,13.07,28.82,112.0
"2009-07-09 01:00:30",1045863,7.562,150.4,1.078,0.313,23.67,111.1976,27.97,28.92,18.95,0,111.3,13.07,28.82,112.4
"2009-07-09 01:01:00",1045864,7.704,147.7,2.28,0.235,23.62,111.1979,27.97,28.92,18.9,0,111.3,13.07,28.82,109.7
"2009-07-09 01:01:30",1045865,7.338,151.4,1.016,0.131,23.69,111.2002,27.98,28.93,18.88,0,111.3,13.07,28.83,113.4
"2009-07-09 01:02:00",1045866,7.629,151.1,1.249,0.178,23.63,111.2012,27.98,28.92,18.74,0,111.3,13.08,28.83,113.1
"2009-07-09 01:02:30",1045867,7.575,151.3,0.635,0.164,23.65,111.2027,27.99,28.94,18.32,0,111.3,13.08,28.84,113.3
"2009-07-09 01:03:00",1045868,7.231,152.2,1.119,0.094,23.77,111.2012,27.98,28.94,18.16,0,111.3,13.08,28.83,114.2
"2009-07-09 01:03:30",1045869,7.392,151.7,0.577,0.134,23.77,111.2027,27.99,28.95,18.16,0,111.3,13.08,28.84,113.7
"2009-07-09 01:04:00",1045870,7.458,150.9,1.466,0.131,23.76,111.2049,27.99,28.93,18.29,0,111.3,13.08,28.84,112.9
"2009-07-09 01:04:30",1045871,7.407,149,1.67,0.221,23.77,111.2065,28,28.95,18.38,0,111.3,13.08,28.85,111.0
"2009-07-09 01:05:00",1045872,7.712,149.8,1.013,0.148,23.78,111.208,28,28.95,18.33,0,111.3,13.08,28.85,111.8
"2009-07-09 01:05:30",1045873,7.813,153.3,1.22,0.168,23.84,111.2074,28,28.95,18.19,0,111.3,13.08,28.85,115.3
"2009-07-09 01:06:00",1045874,7.554,158.1,3.905,0.188,23.82,111.2083,28,28.97,18.09,0,111.3,13.08,28.85,120.1
"2009-07-09 01:06:30",1045875,7.027,158.5,2.533,0.287,23.77,111.2084,28,28.97,18.22,0,111.3,13.08,28.85,120.5
"2009-07-09 01:07:00",1045876,7.354,155.2,1.695,0.212,23.69,111.2084,28,28.97,18.23,0,111.3,13.08,28.85,117.2
"2009-07-09 01:07:30",1045877,6.719,155.4,0.754,0.198,23.59,111.2084,28,28.98,18.36,0,111.3,13.08,28.85,117.4
"2009-07-09 01:08:00",1045878,6.364,155.4,1.137,0.126,23.6,111.2084,28,28.96,18.29,0,111.3,13.08,28.85,117.4
"2009-07-09 01:08:30",1045879,6.776,150.8,1.383,0.368,23.55,111.2084,28,28.98,18.3,0,111.3,13.08,28.85,112.8
"2009-07-09 01:09:00",1045880,6.796,150.2,3.856,0.268,23.56,111.2084,28,28.97,18.31,0,111.3,13.08,28.85,112.2
"2009-07-09 01:09:30",1045881,6.334,153.5,1.617,0.142,23.57,111.2086,28,28.99,18.4,0,111.3,13.08,28.85,115.5
"2009-07-09 01:10:00",1045882,6.017,153.4,1.198,0.14,23.59,111.2084,28,28.99,18.52,0,111.3,13.08,28.85,115.4
"2009-07-09 01:10:30",1045883,6.882,153.1,2.643,0.561,23.62,111.21,28.01,28.99,18.31,0,111.3,13.08,28.85,115.1
"2009-07-09 01:11:00",1045884,7.292,154.7,2.313,0.194,23.71,111.2148,28.02,28.98,18.11,0,111.3,13.08,28.87,116.7
"2009-07-09 01:11:30",1045885,6.658,156.3,0.996,0.187,23.67,111.2114,28.01,28.99,18.16,0,111.3,13.08,28.86,118.3
"2009-07-09 01:12:00",1045886,6.557,155.7,0.793,0.229,23.64,111.2134,28.01,29.01,18.19,0,111.3,13.08,28.86,117.7
"2009-07-09 01:12:30",1045887,6.676,156,0.92,0.142,23.59,111.2154,28.02,28.99,18.14,0,111.3,13.08,28.87,118.0
"2009-07-09 01:13:00",1045888,6.397,154.1,1.343,0.171,23.65,111.2165,28.02,29,18.16,0,111.3,13.08,28.87,116.1
"2009-07-09 01:13:30",1045889,6.442,152.3,1.384,0.09,23.64,111.2154,28.02,29.01,18.04,0,111.3,13.08,28.87,114.3
"2009-07-09 01:14:00",1045890,6.487,150.1,2.305,0.366,23.71,111.2165,28.02,29.01,17.95,0,111.3,13.08,28.87,112.1
"2009-07-09 01:14:30",1045891,5.747,154.5,4.677,0.235,23.72,111.2168,28.02,29.02,18.01,0,111.3,13.08,28.87,116.5
"2009-07-09 01:15:00",1045892,5.401,152.6,2.079,0.163,23.72,111.2168,28.02,29.02,17.81,0,111.3,13.08,28.87,114.6
"2009-07-09 01:15:30",1045893,5.923,155.5,2.543,0.398,23.72,111.2168,28.02,29.02,17.95,0,111.3,13.08,28.87,117.5
"2009-07-09 01:16:00",1045894,6.016,158.2,1.77,0.183,23.73,111.2165,28.02,29.02,18.23,0,111.3,13.08,28.87,120.2
"2009-07-09 01:16:30",1045895,6.117,157.3,2.869,0.375,23.78,111.2154,28.02,29.04,18.33,0,111.3,13.08,28.87,119.3
"2009-07-09 01:17:00",1045896,6.074,158,1.477,0.26,23.74,111.214,28.02,29.03,18.39,0,111.3,13.08,28.86,120.0
"2009-07-09 01:17:30",1045897,6.055,159.4,3.99,0.346,23.68,111.2112,28.01,29.04,18.46,0,111.3,13.08,28.86,121.4
"2009-07-09 01:18:00",1045898,6.275,156.2,3.272,0.235,23.64,111.2086,28,29.03,18.45,0,111.3,13.08,28.85,118.2
"2009-07-09 01:18:30",1045899,6.241,159.5,2.201,0.151,23.7,111.2084,28,29.02,18.6,0,111.3,13.08,28.85,121.5
"2009-07-09 01:19:00",1045900,6.69,158.8,2.325,0.191,23.78,111.2084,28,29.03,18.52,0,111.3,13.08,28.85,120.8
"2009-07-09 01:19:30",1045901,6.71,161.2,1.446,0.162,23.83,111.2084,28,29.03,17.82,0,111.3,13.09,28.85,123.2
"2009-07-09 01:20:00",1045902,6.503,162.1,1.045,0.114,23.81,111.2084,28,29.02,17.15,0,111.3,13.09,28.85,124.1
"2009-07-09 01:20:30",1045903,6.595,164,0.73,0.134,23.82,111.2084,28,29.01,17.09,0,111.3,13.09,28.85,126.0
"2009-07-09 01:21:00",1045904,6.194,165.1,2.288,0.108,23.74,111.2084,28,29.01,17.33,0,111.3,13.09,28.85,127.1
"2009-07-09 01:21:30",1045905,5.82,165.7,2.816,0.313,23.75,111.2072,28,29.01,17.36,0,111.3,13.09,28.85,127.7
"2009-07-09 01:22:00",1045906,5.356,163.7,2.629,0.146,23.72,111.2047,27.99,28.99,17.55,0,111.3,13.09,28.84,125.7
"2009-07-09 01:22:30",1045907,5.556,162.5,1.466,0.304,23.71,111.2014,27.98,29.01,17.48,0,111.3,13.09,28.83,124.5
"2009-07-09 01:23:00",1045908,5.873,162.8,1.055,0.092,23.74,111.1961,27.97,29,17.51,0,111.3,13.09,28.82,124.8
"2009-07-09 01:23:30",1045909,5.69,160.3,2.003,0.122,23.71,111.1888,27.95,28.98,17.76,0,111.3,13.09,28.80,122.3
"2009-07-09 01:24:00",1045910,5.304,158.3,1.475,0.169,23.62,111.1858,27.94,28.98,18.18,0,111.3,13.09,28.79,120.3
"2009-07-09 01:24:30",1045911,5.038,156.9,2.337,0.137,23.63,111.1872,27.95,28.98,18.45,0,111.3,13.09,28.80,118.9
"2009-07-09 01:25:00",1045912,5.315,160.9,2.23,0.161,23.64,111.1934,27.96,28.98,18.22,0,111.3,13.09,28.81,122.9
"2009-07-09 01:25:30",1045913,5.433,162.1,1.476,0.124,23.68,111.1885,27.95,28.97,17.72,0,111.3,13.09,28.80,124.1
"2009-07-09 01:26:00",1045914,5.327,164.6,2.163,0.127,23.68,111.1914,27.96,28.98,17.53,0,111.3,13.09,28.81,126.6
"2009-07-09 01:26:30",1045915,5.227,166.6,2.052,0.185,23.7,111.1952,27.97,28.96,17.81,0,111.3,13.09,28.82,128.6
"2009-07-09 01:27:00",1045916,5.827,168.3,1.484,0.22,23.75,111.1965,27.97,28.96,17.66,0,111.3,13.09,28.82,130.3
"2009-07-09 01:27:30",1045917,5.805,165.2,2.591,0.161,23.72,111.1971,27.97,28.97,17.56,0,111.3,13.09,28.82,127.2
"2009-07-09 01:28:00",1045918,5.43,167,2.175,0.193,23.68,111.2006,27.98,28.96,17.76,0,111.3,13.09,28.83,129.0
"2009-07-09 01:28:30",1045919,5.513,165.3,1.896,0.144,23.64,111.2006,27.98,28.94,17.66,0,111.3,13.09,28.83,127.3
"2009-07-09 01:29:00",1045920,5.774,168,1.033,0.125,23.74,111.2,27.98,28.96,17.67,0,111.3,13.09,28.83,130.0
"2009-07-09 01:29:30",1045921,5.621,166,1.709,0.218,23.64,111.2004,27.98,28.95,17.59,0,111.3,13.09,28.83,128.0
"2009-07-09 01:30:00",1045922,5.849,169.3,1.273,0.123,23.73,111.199,27.98,28.95,17.69,0,111.3,13.08,28.83,131.3
"2009-07-09 01:30:30",1045923,5.69,166.1,3.96,0.222,23.65,111.1957,27.97,28.95,17.86,0,111.3,13.08,28.82,128.1
"2009-07-09 01:31:00",1045924,6.135,168.2,1.403,0.139,23.74,111.1873,27.95,28.95,17.53,0,111.3,13.08,28.80,130.2
"2009-07-09 01:31:30",1045925,6.272,166.5,1.127,0.097,23.8,111.1842,27.94,28.94,17.15,0,111.3,13.08,28.79,128.5
"2009-07-09 01:32:00",1045926,6.008,167.3,1.037,0.147,23.7,111.1812,27.93,28.94,17.15,0,111.3,13.08,28.78,129.3
"2009-07-09 01:32:30",1045927,6.052,169.6,1.063,0.233,23.76,111.1806,27.93,28.94,17.21,0,111.3,13.08,28.78,131.6
"2009-07-09 01:33:00",1045928,6.181,169.1,1.818,0.206,23.68,111.1806,27.93,28.92,17.4,0,111.3,13.08,28.78,131.1
"2009-07-09 01:33:30",1045929,6.176,169.6,1.192,0.131,23.61,111.1809,27.93,28.91,17.63,0,111.3,13.08,28.78,131.6
"2009-07-09 01:34:00",1045930,5.964,168.4,1.49,0.136,23.63,111.18,27.93,28.91,17.53,0,111.3,13.08,28.78,130.4
"2009-07-09 01:34:30",1045931,5.954,168.4,2.118,0.246,23.6,111.18,27.93,28.92,17.59,0,111.3,13.08,28.78,130.4
"2009-07-09 01:35:00",1045932,6.169,169.3,0.411,0.19,23.69,111.1789,27.93,28.92,17.08,0,111.3,13.09,28.77,131.3
"2009-07-09 01:35:30",1045933,6.346,169.4,0.47,0.099,23.67,111.18,27.93,28.92,17.04,0,111.3,13.09,28.78,131.4
"2009-07-09 01:36:00",1045934,6.345,168.8,0.764,0.111,23.67,111.184,27.94,28.92,17.17,0,111.3,13.09,28.79,130.8
"2009-07-09 01:36:30",1045935,6.241,167.6,0.719,0.124,23.67,111.1915,27.96,28.92,17.12,0,111.3,13.09,28.81,129.6
"2009-07-09 01:37:00",1045936,6.394,168.2,0.881,0.069,23.73,111.1975,27.97,28.92,17.14,0,111.3,13.09,28.82,130.2
"2009-07-09 01:37:30",1045937,6.25,169.6,0.797,0.112,23.66,111.2016,27.98,28.93,17.11,0,111.3,13.09,28.83,131.6
"2009-07-09 01:38:00",1045938,6.082,170.7,0.708,0.059,23.65,111.2028,27.99,28.93,17.14,0,111.3,13.09,28.84,132.7
"2009-07-09 01:38:30",1045939,6.1,169.9,0.585,0.068,23.68,111.2031,27.99,28.93,17.13,0,111.3,13.09,28.84,131.9
"2009-07-09 01:39:00",1045940,6.113,169.3,0.607,0.066,23.69,111.2037,27.99,28.94,17.15,0,111.3,13.09,28.84,131.3
"2009-07-09 01:39:30",1045941,6.321,168.4,0.887,0.113,23.75,111.2031,27.99,28.94,16.97,0,111.3,13.09,28.84,130.4
"2009-07-09 01:40:00",1045942,6.462,167.2,0.594,0.085,23.71,111.2028,27.99,28.93,17.02,0,111.3,13.09,28.84,129.2
"2009-07-09 01:40:30",1045943,6.357,167.3,0.754,0.039,23.76,111.2028,27.99,28.95,16.97,0,111.3,13.09,28.84,129.3
"2009-07-09 01:41:00",1045944,6.159,165.6,1.023,0.074,23.57,111.2031,27.99,28.94,17.2,0,111.3,13.09,28.84,127.6
"2009-07-09 01:41:30",1045945,6.154,162.2,2.109,0.103,23.49,111.2034,27.99,28.95,17.42,0,111.3,13.09,28.84,124.2
"2009-07-09 01:42:00",1045946,6.312,161,2.686,0.157,23.53,111.2031,27.99,28.96,17.4,0,111.3,13.09,28.84,123.0
"2009-07-09 01:42:30",1045947,6.949,165.3,0.76,0.087,23.72,111.2028,27.99,28.95,16.85,0,111.3,13.09,28.84,127.3
"2009-07-09 01:43:00",1045948,6.858,165.9,0.874,0.05,23.68,111.2034,27.99,28.96,16.61,0,111.3,13.09,28.84,127.9
"2009-07-09 01:43:30",1045949,6.84,164.9,0.485,0.054,23.64,111.2028,27.99,28.96,16.58,0,111.3,13.09,28.84,126.9
"2009-07-09 01:44:00",1045950,6.904,164.5,0.661,0.147,23.64,111.2031,27.99,28.97,16.6,0,111.3,13.09,28.84,126.5
"2009-07-09 01:44:30",1045951,7.261,163.7,0.924,0.106,23.6,111.204,27.99,28.95,16.41,0,111.3,13.09,28.84,125.7
"2009-07-09 01:45:00",1045952,7.059,163.2,1.239,0.103,23.65,111.2034,27.99,28.96,16.49,0,111.3,13.09,28.84,125.2
"2009-07-09 01:45:30",1045953,6.786,163.3,1.269,0.108,23.58,111.2031,27.99,28.95,16.63,0,111.3,13.09,28.84,125.3
"2009-07-09 01:46:00",1045954,7.134,163.3,0.76,0.318,23.59,111.204,27.99,28.95,16.66,0,111.3,13.09,28.84,125.3
"2009-07-09 01:46:30",1045955,7.397,163.9,0.235,0.075,23.65,111.2037,27.99,28.96,16.35,0,111.3,13.09,28.84,125.9
"2009-07-09 01:47:00",1045956,7.313,163.6,0.34,0.051,23.61,111.2034,27.99,28.95,16.18,0,111.3,13.09,28.84,125.6